Time,TemperatureF,DewpointF,PressureIn,WindDirection,WindDirectionDegrees,WindSpeedMPH,WindSpeedGustMPH,Humidity,HourlyPrecipIn,Conditions,Clouds,dailyrainin,SoftwareType,DateUTC
2013-11-17 00:01:00,0.0,0.0,29.71,WNW,292,1.6,3.8,0,0.00,,---,0.00,VWS V14.01,2013-11-16 22:01:00,
2013-11-17 00:02:00,0.0,0.0,29.71,WNW,292,0.0,1.6,0,0.00,,---,0.00,VWS V14.01,2013-11-16 22:02:00,
2013-11-17 00:05:00,0.0,0.0,29.74,WNW,292,2.2,2.2,0,0.00,,---,0.00,VWS V14.01,2013-11-16 22:05:00,
2013-11-17 00:06:00,0.0,0.0,29.74,WNW,292,0.0,2.2,0,0.00,,---,0.00,VWS V14.01,2013-11-16 22:06:00,
2013-11-17 00:08:00,0.0,0.0,29.74,WNW,292,2.5,3.4,0,0.00,,---,0.00,VWS V14.01,2013-11-16 22:08:00,
2013-11-17 00:10:00,0.0,0.0,29.74,WNW,292,1.6,2.5,0,0.00,,---,0.00,VWS V14.01,2013-11-16 22:10:00,
2013-11-17 00:11:00,0.0,0.0,29.74,NNW,338,2.9,3.4,0,0.00,,---,0.00,VWS V14.01,2013-11-16 22:11:00,
2013-11-17 00:13:00,0.0,0.0,29.74,WNW,292,1.6,1.6,0,0.00,,---,0.00,VWS V14.01,2013-11-16 22:13:00,
2013-11-17 00:16:00,0.0,0.0,29.74,WNW,292,0.0,2.0,0,0.00,,---,0.00,VWS V14.01,2013-11-16 22:16:00,
2013-11-17 00:17:00,0.0,0.0,29.74,WNW,292,0.0,2.5,0,0.00,,---,0.00,VWS V14.01,2013-11-16 22:17:00,
2013-11-17 00:19:00,0.0,0.0,29.74,WNW,292,1.3,1.3,0,0.00,,---,0.00,VWS V14.01,2013-11-16 22:19:00,
2013-11-17 00:20:00,0.0,0.0,29.74,WNW,292,1.3,1.3,0,0.00,,---,0.00,VWS V14.01,2013-11-16 22:20:00,
2013-11-17 00:22:00,0.0,0.0,29.74,WNW,292,1.6,4.0,0,0.00,,---,0.00,VWS V14.01,2013-11-16 22:22:00,
2013-11-17 00:24:00,0.0,0.0,29.74,WNW,292,1.6,2.9,0,0.00,,---,0.00,VWS V14.01,2013-11-16 22:24:00,
2013-11-17 00:25:00,0.0,0.0,29.74,WNW,292,3.1,3.6,0,0.00,,---,0.00,VWS V14.01,2013-11-16 22:25:00,
2013-11-17 00:27:00,0.0,0.0,29.74,NNE,22,4.0,4.0,0,0.00,,---,0.00,VWS V14.01,2013-11-16 22:27:00,
2013-11-17 00:28:00,0.0,0.0,29.74,WNW,292,3.1,4.0,0,0.00,,---,0.00,VWS V14.01,2013-11-16 22:28:00,
2013-11-17 00:31:00,0.0,0.0,29.74,WNW,292,2.2,4.0,0,0.00,,---,0.00,VWS V14.01,2013-11-16 22:31:00,
2013-11-17 00:33:00,0.0,0.0,29.71,WNW,292,1.6,4.0,0,0.00,,---,0.00,VWS V14.01,2013-11-16 22:33:00,
2013-11-17 00:36:00,0.0,0.0,29.71,WNW,292,3.4,4.3,0,0.00,,---,0.00,VWS V14.01,2013-11-16 22:36:00,
2013-11-17 00:37:00,0.0,0.0,29.71,WNW,292,3.6,3.6,0,0.00,,---,0.00,VWS V14.01,2013-11-16 22:37:00,
2013-11-17 00:38:00,0.0,0.0,29.71,WNW,292,3.4,3.6,0,0.00,,---,0.00,VWS V14.01,2013-11-16 22:38:00,
2013-11-17 00:39:00,0.0,0.0,29.71,WNW,292,2.5,3.4,0,0.00,,---,0.00,VWS V14.01,2013-11-16 22:39:00,
2013-11-17 00:40:00,0.0,0.0,29.71,NNW,338,2.0,3.6,0,0.00,,---,0.00,VWS V14.01,2013-11-16 22:40:00,
2013-11-17 00:41:00,0.0,0.0,29.71,WNW,292,1.1,4.3,0,0.00,,---,0.00,VWS V14.01,2013-11-16 22:41:00,
2013-11-17 00:42:00,0.0,0.0,29.71,NNW,338,2.2,4.0,0,0.00,,---,0.00,VWS V14.01,2013-11-16 22:42:00,
2013-11-17 00:47:00,0.0,0.0,29.71,WNW,292,3.4,4.9,0,0.00,,---,0.00,VWS V14.01,2013-11-16 22:47:00,
2013-11-17 00:48:00,0.0,0.0,29.71,WNW,292,5.6,5.6,0,0.00,,---,0.00,VWS V14.01,2013-11-16 22:48:00,
2013-11-17 00:49:00,0.0,0.0,29.71,WNW,292,2.9,5.6,0,0.00,,---,0.00,VWS V14.01,2013-11-16 22:49:00,
2013-11-17 00:50:00,0.0,0.0,29.71,NW,315,3.8,6.0,0,0.00,,---,0.00,VWS V14.01,2013-11-16 22:50:00,
2013-11-17 00:53:00,0.0,0.0,29.71,WNW,292,2.9,4.3,0,0.00,,---,0.00,VWS V14.01,2013-11-16 22:53:00,
2013-11-17 00:54:00,0.0,0.0,29.71,WNW,292,2.7,4.9,0,0.00,,---,0.00,VWS V14.01,2013-11-16 22:54:00,
2013-11-17 00:56:00,0.0,0.0,29.71,NW,315,4.0,6.0,0,0.00,,---,0.00,VWS V14.01,2013-11-16 22:56:00,
2013-11-17 00:58:00,0.0,0.0,29.71,WNW,292,2.5,2.9,0,0.00,,---,0.00,VWS V14.01,2013-11-16 22:58:00,
2013-11-17 00:59:00,0.0,0.0,29.71,WNW,292,3.1,5.4,0,0.00,,---,0.00,VWS V14.01,2013-11-16 22:59:00,
2013-11-17 01:00:00,0.0,0.0,29.71,NW,315,4.3,5.6,0,0.00,,---,0.00,VWS V14.01,2013-11-16 23:00:00,
2013-11-17 01:01:00,0.0,0.0,29.71,WNW,292,2.5,4.3,0,0.00,,---,0.00,VWS V14.01,2013-11-16 23:01:00,
2013-11-17 01:02:00,0.0,0.0,29.71,WNW,292,1.3,2.5,0,0.00,,---,0.00,VWS V14.01,2013-11-16 23:02:00,
2013-11-17 01:05:00,0.0,0.0,29.71,West,270,3.6,3.8,0,0.00,,---,0.00,VWS V14.01,2013-11-16 23:05:00,
2013-11-17 01:07:00,0.0,0.0,29.71,NW,315,3.4,4.3,0,0.00,,---,0.00,VWS V14.01,2013-11-16 23:07:00,
2013-11-17 01:08:00,0.0,0.0,29.71,NNW,338,1.3,3.4,0,0.00,,---,0.00,VWS V14.01,2013-11-16 23:08:00,
2013-11-17 01:11:00,0.0,0.0,29.71,WNW,292,4.0,4.0,0,0.00,,---,0.00,VWS V14.01,2013-11-16 23:11:00,
2013-11-17 01:12:00,0.0,0.0,29.71,WNW,292,3.8,4.3,0,0.00,,---,0.00,VWS V14.01,2013-11-16 23:12:00,
2013-11-17 01:14:00,0.0,0.0,29.71,WNW,292,5.8,5.8,0,0.00,,---,0.00,VWS V14.01,2013-11-16 23:14:00,
2013-11-17 01:15:00,0.0,0.0,29.71,WNW,292,3.4,3.8,0,0.00,,---,0.00,VWS V14.01,2013-11-16 23:15:00,
2013-11-17 01:16:00,0.0,0.0,29.71,WNW,292,2.0,5.4,0,0.00,,---,0.00,VWS V14.01,2013-11-16 23:16:00,
2013-11-17 01:19:00,0.0,0.0,29.71,WNW,292,1.6,3.6,0,0.00,,---,0.00,VWS V14.01,2013-11-16 23:19:00,
2013-11-17 01:20:00,0.0,0.0,29.71,WNW,292,3.6,3.6,0,0.00,,---,0.00,VWS V14.01,2013-11-16 23:20:00,
2013-11-17 01:21:00,0.0,0.0,29.71,WNW,292,2.5,3.8,0,0.00,,---,0.00,VWS V14.01,2013-11-16 23:21:00,
2013-11-17 01:26:00,0.0,0.0,29.71,NNW,338,2.9,2.9,0,0.00,,---,0.00,VWS V14.01,2013-11-16 23:26:00,
2013-11-17 01:27:00,0.0,0.0,29.71,WNW,292,4.7,4.7,0,0.00,,---,0.00,VWS V14.01,2013-11-16 23:27:00,
2013-11-17 01:29:00,0.0,0.0,29.71,WNW,292,3.1,3.1,0,0.00,,---,0.00,VWS V14.01,2013-11-16 23:29:00,
2013-11-17 01:31:00,0.0,0.0,29.71,WNW,292,3.1,3.1,0,0.00,,---,0.00,VWS V14.01,2013-11-16 23:31:00,
2013-11-17 01:32:00,0.0,0.0,29.71,WNW,292,2.9,2.9,0,0.00,,---,0.00,VWS V14.01,2013-11-16 23:32:00,
2013-11-17 01:33:00,0.0,0.0,29.71,WNW,292,2.2,4.0,0,0.00,,---,0.00,VWS V14.01,2013-11-16 23:33:00,
2013-11-17 01:35:00,0.0,0.0,29.71,NW,315,4.3,4.3,0,0.00,,---,0.00,VWS V14.01,2013-11-16 23:35:00,
2013-11-17 01:36:00,0.0,0.0,29.71,WNW,292,2.7,4.3,0,0.00,,---,0.00,VWS V14.01,2013-11-16 23:36:00,
2013-11-17 01:37:00,0.0,0.0,29.71,WNW,292,2.2,2.7,0,0.00,,---,0.00,VWS V14.01,2013-11-16 23:37:00,
2013-11-17 01:40:00,0.0,0.0,29.71,WNW,292,2.9,3.4,0,0.00,,---,0.00,VWS V14.01,2013-11-16 23:40:00,
2013-11-17 01:42:00,0.0,0.0,29.71,NNW,338,0.0,3.6,0,0.00,,---,0.00,VWS V14.01,2013-11-16 23:42:00,
2013-11-17 01:44:00,0.0,0.0,29.71,WNW,292,3.4,4.0,0,0.00,,---,0.00,VWS V14.01,2013-11-16 23:44:00,
2013-11-17 01:45:00,0.0,0.0,29.71,NNW,338,0.0,4.0,0,0.00,,---,0.00,VWS V14.01,2013-11-16 23:45:00,
2013-11-17 01:47:00,0.0,0.0,29.71,WNW,292,0.0,2.9,0,0.00,,---,0.00,VWS V14.01,2013-11-16 23:47:00,
2013-11-17 01:49:00,0.0,0.0,29.74,WNW,292,2.9,3.1,0,0.00,,---,0.00,VWS V14.01,2013-11-16 23:49:00,
2013-11-17 01:50:00,0.0,0.0,29.74,WNW,292,0.0,3.4,0,0.00,,---,0.00,VWS V14.01,2013-11-16 23:50:00,
2013-11-17 01:52:00,0.0,0.0,29.74,NNW,338,2.0,2.0,0,0.00,,---,0.00,VWS V14.01,2013-11-16 23:52:00,
2013-11-17 01:54:00,0.0,0.0,29.74,West,270,0.0,2.0,0,0.00,,---,0.00,VWS V14.01,2013-11-16 23:54:00,
2013-11-17 01:55:00,0.0,0.0,29.74,WNW,292,3.4,3.4,0,0.00,,---,0.00,VWS V14.01,2013-11-16 23:55:00,
2013-11-17 01:56:00,0.0,0.0,29.74,WNW,292,2.7,3.4,0,0.00,,---,0.00,VWS V14.01,2013-11-16 23:56:00,
2013-11-17 02:00:00,0.0,0.0,29.74,WNW,292,6.0,6.0,0,0.00,,---,0.00,VWS V14.01,2013-11-17 00:00:00,
2013-11-17 02:01:00,0.0,0.0,29.74,WNW,292,4.0,4.0,0,0.00,,---,0.00,VWS V14.01,2013-11-17 00:01:00,
2013-11-17 02:02:00,0.0,0.0,29.74,WNW,292,2.5,4.0,0,0.00,,---,0.00,VWS V14.01,2013-11-17 00:02:00,
2013-11-17 02:03:00,0.0,0.0,29.74,WNW,292,2.0,2.5,0,0.00,,---,0.00,VWS V14.01,2013-11-17 00:03:00,
2013-11-17 02:05:00,0.0,0.0,29.74,WNW,292,2.5,3.1,0,0.00,,---,0.00,VWS V14.01,2013-11-17 00:05:00,
2013-11-17 02:07:00,0.0,0.0,29.74,NNW,338,0.9,3.4,0,0.00,,---,0.00,VWS V14.01,2013-11-17 00:07:00,
2013-11-17 02:10:00,0.0,0.0,29.74,WNW,292,3.1,3.8,0,0.00,,---,0.00,VWS V14.01,2013-11-17 00:10:00,
2013-11-17 02:11:00,0.0,0.0,29.74,WNW,292,4.0,4.9,0,0.00,,---,0.00,VWS V14.01,2013-11-17 00:11:00,
2013-11-17 02:12:00,0.0,0.0,29.74,WNW,292,1.6,5.4,0,0.00,,---,0.00,VWS V14.01,2013-11-17 00:12:00,
2013-11-17 02:13:00,0.0,0.0,29.74,WNW,292,0.0,2.0,0,0.00,,---,0.00,VWS V14.01,2013-11-17 00:13:00,
2013-11-17 02:15:00,0.0,0.0,29.74,WNW,292,1.3,4.0,0,0.00,,---,0.00,VWS V14.01,2013-11-17 00:15:00,
2013-11-17 02:17:00,0.0,0.0,29.74,North,0,0.0,3.6,0,0.00,,---,0.00,VWS V14.01,2013-11-17 00:17:00,
2013-11-17 02:18:00,0.0,0.0,29.71,WNW,292,1.1,1.1,0,0.00,,---,0.00,VWS V14.01,2013-11-17 00:18:00,
2013-11-17 02:21:00,0.0,0.0,29.71,NNW,338,1.6,5.4,0,0.00,,---,0.00,VWS V14.01,2013-11-17 00:21:00,
2013-11-17 02:23:00,0.0,0.0,29.71,WNW,292,3.8,3.8,0,0.00,,---,0.00,VWS V14.01,2013-11-17 00:23:00,
2013-11-17 02:25:00,0.0,0.0,29.71,WNW,292,2.7,3.6,0,0.00,,---,0.00,VWS V14.01,2013-11-17 00:25:00,
2013-11-17 02:26:00,0.0,0.0,29.71,NW,315,4.0,4.0,0,0.00,,---,0.00,VWS V14.01,2013-11-17 00:26:00,
2013-11-17 02:28:00,0.0,0.0,29.71,WNW,292,1.1,4.0,0,0.00,,---,0.00,VWS V14.01,2013-11-17 00:28:00,
2013-11-17 02:33:00,0.0,0.0,29.71,WNW,292,2.0,4.0,0,0.00,,---,0.00,VWS V14.01,2013-11-17 00:33:00,
2013-11-17 02:34:00,0.0,0.0,29.71,WNW,292,2.5,3.6,0,0.00,,---,0.00,VWS V14.01,2013-11-17 00:34:00,
2013-11-17 02:36:00,0.0,0.0,29.71,WNW,292,5.8,5.8,0,0.00,,---,0.00,VWS V14.01,2013-11-17 00:36:00,
2013-11-17 02:37:00,0.0,0.0,29.71,WNW,292,4.9,5.8,0,0.00,,---,0.00,VWS V14.01,2013-11-17 00:37:00,
2013-11-17 02:38:00,0.0,0.0,29.71,WNW,292,2.5,4.9,0,0.00,,---,0.00,VWS V14.01,2013-11-17 00:38:00,
2013-11-17 02:42:00,0.0,0.0,29.71,NNW,338,3.1,4.9,0,0.00,,---,0.00,VWS V14.01,2013-11-17 00:42:00,
2013-11-17 02:43:00,0.0,0.0,29.71,NNW,338,4.7,4.7,0,0.00,,---,0.00,VWS V14.01,2013-11-17 00:43:00,
2013-11-17 02:44:00,0.0,0.0,29.71,WNW,292,0.9,4.7,0,0.00,,---,0.00,VWS V14.01,2013-11-17 00:44:00,
2013-11-17 02:45:00,0.0,0.0,29.71,WNW,292,4.3,4.3,0,0.00,,---,0.00,VWS V14.01,2013-11-17 00:45:00,
2013-11-17 02:46:00,0.0,0.0,29.71,NNW,338,2.7,4.3,0,0.00,,---,0.00,VWS V14.01,2013-11-17 00:46:00,
2013-11-17 02:51:00,0.0,0.0,29.71,WNW,292,1.6,3.8,0,0.00,,---,0.00,VWS V14.01,2013-11-17 00:51:00,
2013-11-17 02:52:00,0.0,0.0,29.71,WNW,292,2.7,2.7,0,0.00,,---,0.00,VWS V14.01,2013-11-17 00:52:00,
2013-11-17 02:54:00,0.0,0.0,29.71,WNW,292,3.4,3.4,0,0.00,,---,0.00,VWS V14.01,2013-11-17 00:54:00,
2013-11-17 02:55:00,0.0,0.0,29.71,WNW,292,4.0,4.0,0,0.00,,---,0.00,VWS V14.01,2013-11-17 00:55:00,
2013-11-17 02:57:00,0.0,0.0,29.71,WNW,292,2.9,4.0,0,0.00,,---,0.00,VWS V14.01,2013-11-17 00:57:00,
2013-11-17 02:59:00,0.0,0.0,29.71,WNW,292,3.4,4.3,0,0.00,,---,0.00,VWS V14.01,2013-11-17 00:59:00,
2013-11-17 03:01:00,0.0,0.0,29.71,WNW,292,4.3,4.3,0,0.00,,---,0.00,VWS V14.01,2013-11-17 01:01:00,
2013-11-17 03:03:00,0.0,0.0,29.71,NW,315,2.9,4.0,0,0.00,,---,0.00,VWS V14.01,2013-11-17 01:03:00,
2013-11-17 03:05:00,0.0,0.0,29.71,WNW,292,2.0,4.0,0,0.00,,---,0.00,VWS V14.01,2013-11-17 01:05:00,
2013-11-17 03:07:00,0.0,0.0,29.71,WNW,292,4.3,4.3,0,0.00,,---,0.00,VWS V14.01,2013-11-17 01:07:00,
2013-11-17 03:10:00,0.0,0.0,29.71,WNW,292,2.9,6.0,0,0.00,,---,0.00,VWS V14.01,2013-11-17 01:10:00,
2013-11-17 03:12:00,0.0,0.0,29.71,WNW,292,3.1,3.6,0,0.00,,---,0.00,VWS V14.01,2013-11-17 01:12:00,
2013-11-17 03:13:00,0.0,0.0,29.71,WNW,292,0.0,3.4,0,0.00,,---,0.00,VWS V14.01,2013-11-17 01:13:00,
2013-11-17 03:16:00,0.0,0.0,29.71,WNW,292,6.0,6.3,0,0.00,,---,0.00,VWS V14.01,2013-11-17 01:16:00,
2013-11-17 03:17:00,0.0,0.0,29.71,WNW,292,3.4,6.0,0,0.00,,---,0.00,VWS V14.01,2013-11-17 01:17:00,
2013-11-17 03:18:00,0.0,0.0,29.68,WNW,292,5.4,5.4,0,0.00,,---,0.00,VWS V14.01,2013-11-17 01:18:00,
2013-11-17 03:19:00,0.0,0.0,29.68,NW,315,3.1,5.4,0,0.00,,---,0.00,VWS V14.01,2013-11-17 01:19:00,
2013-11-17 03:20:00,0.0,0.0,29.68,NNW,338,3.6,5.4,0,0.00,,---,0.00,VWS V14.01,2013-11-17 01:20:00,
2013-11-17 03:22:00,0.0,0.0,29.68,NW,315,3.8,4.9,0,0.00,,---,0.00,VWS V14.01,2013-11-17 01:22:00,
2013-11-17 03:23:00,0.0,0.0,29.68,WNW,292,3.6,6.0,0,0.00,,---,0.00,VWS V14.01,2013-11-17 01:23:00,
2013-11-17 03:25:00,0.0,0.0,29.68,WNW,292,2.7,2.9,0,0.00,,---,0.00,VWS V14.01,2013-11-17 01:25:00,
2013-11-17 03:26:00,0.0,0.0,29.68,NNW,338,1.6,3.8,0,0.00,,---,0.00,VWS V14.01,2013-11-17 01:26:00,
2013-11-17 03:28:00,0.0,0.0,29.68,WNW,292,5.4,5.4,0,0.00,,---,0.00,VWS V14.01,2013-11-17 01:28:00,
2013-11-17 03:30:00,0.0,0.0,29.68,WNW,292,4.0,4.0,0,0.00,,---,0.00,VWS V14.01,2013-11-17 01:30:00,
2013-11-17 03:32:00,0.0,0.0,29.68,NW,315,5.8,5.8,0,0.00,,---,0.00,VWS V14.01,2013-11-17 01:32:00,
2013-11-17 03:33:00,0.0,0.0,29.68,WNW,292,3.8,4.9,0,0.00,,---,0.00,VWS V14.01,2013-11-17 01:33:00,
2013-11-17 03:34:00,0.0,0.0,29.68,WNW,292,2.9,3.8,0,0.00,,---,0.00,VWS V14.01,2013-11-17 01:34:00,
2013-11-17 03:36:00,0.0,0.0,29.68,WNW,292,1.1,5.4,0,0.00,,---,0.00,VWS V14.01,2013-11-17 01:36:00,
2013-11-17 03:37:00,0.0,0.0,29.68,NW,315,5.4,6.0,0,0.00,,---,0.00,VWS V14.01,2013-11-17 01:37:00,
2013-11-17 03:39:00,0.0,0.0,29.68,WNW,292,2.7,6.3,0,0.00,,---,0.00,VWS V14.01,2013-11-17 01:39:00,
2013-11-17 03:41:00,0.0,0.0,29.68,WNW,292,3.4,6.0,0,0.00,,---,0.00,VWS V14.01,2013-11-17 01:41:00,
2013-11-17 03:43:00,0.0,0.0,29.68,WNW,292,2.5,6.3,0,0.00,,---,0.00,VWS V14.01,2013-11-17 01:43:00,
2013-11-17 03:44:00,0.0,0.0,29.68,WNW,292,2.7,4.3,0,0.00,,---,0.00,VWS V14.01,2013-11-17 01:44:00,
2013-11-17 03:46:00,0.0,0.0,29.68,WNW,292,3.6,3.6,0,0.00,,---,0.00,VWS V14.01,2013-11-17 01:46:00,
2013-11-17 03:47:00,0.0,0.0,29.68,WNW,292,2.9,4.0,0,0.00,,---,0.00,VWS V14.01,2013-11-17 01:47:00,
2013-11-17 03:49:00,0.0,0.0,29.68,NNW,338,1.6,7.2,0,0.00,,---,0.00,VWS V14.01,2013-11-17 01:49:00,
2013-11-17 03:51:00,0.0,0.0,29.68,West,270,1.1,6.3,0,0.00,,---,0.00,VWS V14.01,2013-11-17 01:51:00,
2013-11-17 03:52:00,0.0,0.0,29.68,WNW,292,4.3,5.6,0,0.00,,---,0.00,VWS V14.01,2013-11-17 01:52:00,
2013-11-17 03:53:00,0.0,0.0,29.68,NNW,338,7.8,7.8,0,0.00,,---,0.00,VWS V14.01,2013-11-17 01:53:00,
2013-11-17 03:55:00,0.0,0.0,29.68,WNW,292,3.6,5.4,0,0.00,,---,0.00,VWS V14.01,2013-11-17 01:55:00,
2013-11-17 03:57:00,0.0,0.0,29.68,West,270,2.7,4.3,0,0.00,,---,0.00,VWS V14.01,2013-11-17 01:57:00,
2013-11-17 03:58:00,0.0,0.0,29.68,WNW,292,3.6,6.5,0,0.00,,---,0.00,VWS V14.01,2013-11-17 01:58:00,
2013-11-17 03:59:00,0.0,0.0,29.68,West,270,5.4,5.6,0,0.00,,---,0.00,VWS V14.01,2013-11-17 01:59:00,
2013-11-17 04:02:00,0.0,0.0,29.68,WNW,292,3.6,3.8,0,0.00,,---,0.00,VWS V14.01,2013-11-17 02:02:00,
2013-11-17 04:04:00,0.0,0.0,29.68,WNW,292,3.1,4.9,0,0.00,,---,0.00,VWS V14.01,2013-11-17 02:04:00,
2013-11-17 04:05:00,0.0,0.0,29.68,West,270,4.9,4.9,0,0.00,,---,0.00,VWS V14.01,2013-11-17 02:05:00,
2013-11-17 04:06:00,0.0,0.0,29.68,WNW,292,3.4,4.9,0,0.00,,---,0.00,VWS V14.01,2013-11-17 02:06:00,
2013-11-17 04:07:00,0.0,0.0,29.68,WNW,292,5.4,5.8,0,0.00,,---,0.00,VWS V14.01,2013-11-17 02:07:00,
2013-11-17 04:10:00,0.0,0.0,29.68,WNW,292,4.3,5.6,0,0.00,,---,0.00,VWS V14.01,2013-11-17 02:10:00,
2013-11-17 04:12:00,0.0,0.0,29.68,WNW,292,4.3,5.4,0,0.00,,---,0.00,VWS V14.01,2013-11-17 02:12:00,
2013-11-17 04:13:00,0.0,0.0,29.68,WNW,292,3.1,4.3,0,0.00,,---,0.00,VWS V14.01,2013-11-17 02:13:00,
2013-11-17 04:15:00,0.0,0.0,29.68,NW,315,3.8,4.9,0,0.00,,---,0.00,VWS V14.01,2013-11-17 02:15:00,
2013-11-17 04:18:00,0.0,0.0,29.68,WNW,292,4.0,4.0,0,0.00,,---,0.00,VWS V14.01,2013-11-17 02:18:00,
2013-11-17 04:19:00,0.0,0.0,29.68,NNW,338,3.1,4.0,0,0.00,,---,0.00,VWS V14.01,2013-11-17 02:19:00,
2013-11-17 04:21:00,0.0,0.0,29.68,NNW,338,3.1,5.8,0,0.00,,---,0.00,VWS V14.01,2013-11-17 02:21:00,
2013-11-17 04:22:00,0.0,0.0,29.68,WNW,292,2.9,4.3,0,0.00,,---,0.00,VWS V14.01,2013-11-17 02:22:00,
2013-11-17 04:23:00,0.0,0.0,29.68,WNW,292,2.9,5.4,0,0.00,,---,0.00,VWS V14.01,2013-11-17 02:23:00,
2013-11-17 04:24:00,0.0,0.0,29.68,WNW,292,3.6,3.6,0,0.00,,---,0.00,VWS V14.01,2013-11-17 02:24:00,
2013-11-17 04:26:00,0.0,0.0,29.68,NW,315,2.9,5.8,0,0.00,,---,0.00,VWS V14.01,2013-11-17 02:26:00,
2013-11-17 04:28:00,0.0,0.0,29.68,NNE,22,4.7,4.7,0,0.00,,---,0.00,VWS V14.01,2013-11-17 02:28:00,
2013-11-17 04:29:00,0.0,0.0,29.68,West,270,3.4,5.8,0,0.00,,---,0.00,VWS V14.01,2013-11-17 02:29:00,
2013-11-17 04:30:00,0.0,0.0,29.68,WSW,248,5.6,5.6,0,0.00,,---,0.00,VWS V14.01,2013-11-17 02:30:00,
2013-11-17 04:32:00,0.0,0.0,29.68,WNW,292,1.6,4.0,0,0.00,,---,0.00,VWS V14.01,2013-11-17 02:32:00,
2013-11-17 04:33:00,0.0,0.0,29.68,WNW,292,4.9,4.9,0,0.00,,---,0.00,VWS V14.01,2013-11-17 02:33:00,
2013-11-17 04:35:00,0.0,0.0,29.68,WNW,292,4.9,4.9,0,0.00,,---,0.00,VWS V14.01,2013-11-17 02:35:00,
2013-11-17 04:36:00,0.0,0.0,29.68,WNW,292,1.6,4.9,0,0.00,,---,0.00,VWS V14.01,2013-11-17 02:36:00,
2013-11-17 04:39:00,0.0,0.0,29.68,WNW,292,8.5,8.5,0,0.00,,---,0.00,VWS V14.01,2013-11-17 02:39:00,
2013-11-17 04:41:00,0.0,0.0,29.68,WNW,292,1.1,4.3,0,0.00,,---,0.00,VWS V14.01,2013-11-17 02:41:00,
2013-11-17 04:42:00,0.0,0.0,29.68,WNW,292,3.6,5.4,0,0.00,,---,0.00,VWS V14.01,2013-11-17 02:42:00,
2013-11-17 04:45:00,0.0,0.0,29.68,North,0,2.9,2.9,0,0.00,,---,0.00,VWS V14.01,2013-11-17 02:45:00,
2013-11-17 04:46:00,0.0,0.0,29.68,WNW,292,3.1,3.4,0,0.00,,---,0.00,VWS V14.01,2013-11-17 02:46:00,
2013-11-17 04:47:00,0.0,0.0,29.68,West,270,4.9,4.9,0,0.00,,---,0.00,VWS V14.01,2013-11-17 02:47:00,
2013-11-17 04:49:00,0.0,0.0,29.68,WNW,292,2.9,5.6,0,0.00,,---,0.00,VWS V14.01,2013-11-17 02:49:00,
2013-11-17 04:51:00,0.0,0.0,29.68,WNW,292,5.4,5.4,0,0.00,,---,0.00,VWS V14.01,2013-11-17 02:51:00,
2013-11-17 04:52:00,0.0,0.0,29.68,NNW,338,3.6,6.3,0,0.00,,---,0.00,VWS V14.01,2013-11-17 02:52:00,
2013-11-17 04:55:00,0.0,0.0,29.68,WNW,292,0.9,5.8,0,0.00,,---,0.00,VWS V14.01,2013-11-17 02:55:00,
2013-11-17 04:56:00,0.0,0.0,29.68,WNW,292,3.1,4.3,0,0.00,,---,0.00,VWS V14.01,2013-11-17 02:56:00,
2013-11-17 04:57:00,0.0,0.0,29.68,WNW,292,5.8,5.8,0,0.00,,---,0.00,VWS V14.01,2013-11-17 02:57:00,
2013-11-17 04:58:00,0.0,0.0,29.68,West,270,3.4,5.8,0,0.00,,---,0.00,VWS V14.01,2013-11-17 02:58:00,
2013-11-17 05:00:00,0.0,0.0,29.68,WNW,292,3.1,5.8,0,0.00,,---,0.00,VWS V14.01,2013-11-17 03:00:00,
2013-11-17 05:01:00,0.0,0.0,29.68,WNW,292,2.5,4.5,0,0.00,,---,0.00,VWS V14.01,2013-11-17 03:01:00,
2013-11-17 05:04:00,0.0,0.0,29.68,West,270,5.6,7.8,0,0.00,,---,0.00,VWS V14.01,2013-11-17 03:04:00,
2013-11-17 05:06:00,0.0,0.0,29.68,WNW,292,3.4,3.4,0,0.00,,---,0.00,VWS V14.01,2013-11-17 03:06:00,
2013-11-17 05:07:00,0.0,0.0,29.68,WSW,248,2.2,5.4,0,0.00,,---,0.00,VWS V14.01,2013-11-17 03:07:00,
2013-11-17 05:08:00,0.0,0.0,29.68,NW,315,4.9,4.9,0,0.00,,---,0.00,VWS V14.01,2013-11-17 03:08:00,
2013-11-17 05:11:00,0.0,0.0,29.68,WNW,292,2.9,2.9,0,0.00,,---,0.00,VWS V14.01,2013-11-17 03:11:00,
2013-11-17 05:12:00,0.0,0.0,29.68,WNW,292,3.1,3.1,0,0.00,,---,0.00,VWS V14.01,2013-11-17 03:12:00,
2013-11-17 05:13:00,0.0,0.0,29.68,WNW,292,5.8,5.8,0,0.00,,---,0.00,VWS V14.01,2013-11-17 03:13:00,
2013-11-17 05:15:00,0.0,0.0,29.68,WNW,292,3.6,6.3,0,0.00,,---,0.00,VWS V14.01,2013-11-17 03:15:00,
2013-11-17 05:16:00,0.0,0.0,29.68,WNW,292,4.9,6.5,0,0.00,,---,0.00,VWS V14.01,2013-11-17 03:16:00,
2013-11-17 05:18:00,0.0,0.0,29.68,WNW,292,4.7,5.8,0,0.00,,---,0.00,VWS V14.01,2013-11-17 03:18:00,
2013-11-17 05:19:00,0.0,0.0,29.68,WNW,292,2.7,6.0,0,0.00,,---,0.00,VWS V14.01,2013-11-17 03:19:00,
2013-11-17 05:21:00,0.0,0.0,29.68,West,270,5.6,5.6,0,0.00,,---,0.00,VWS V14.01,2013-11-17 03:21:00,
2013-11-17 05:22:00,0.0,0.0,29.68,WNW,292,1.6,3.6,0,0.00,,---,0.00,VWS V14.01,2013-11-17 03:22:00,
2013-11-17 05:23:00,0.0,0.0,29.68,WSW,248,4.3,6.0,0,0.00,,---,0.00,VWS V14.01,2013-11-17 03:23:00,
2013-11-17 05:27:00,0.0,0.0,29.68,WSW,248,4.3,4.3,0,0.00,,---,0.00,VWS V14.01,2013-11-17 03:27:00,
2013-11-17 05:28:00,0.0,0.0,29.68,WSW,248,4.3,4.3,0,0.00,,---,0.00,VWS V14.01,2013-11-17 03:28:00,
2013-11-17 05:31:00,0.0,0.0,29.68,WNW,292,3.6,4.3,0,0.00,,---,0.00,VWS V14.01,2013-11-17 03:31:00,
2013-11-17 05:32:00,0.0,0.0,29.68,NW,315,5.6,5.6,0,0.00,,---,0.00,VWS V14.01,2013-11-17 03:32:00,
2013-11-17 05:33:00,0.0,0.0,29.68,NW,315,5.6,5.6,0,0.00,,---,0.00,VWS V14.01,2013-11-17 03:33:00,
2013-11-17 05:36:00,0.0,0.0,29.68,WNW,292,7.6,7.6,0,0.00,,---,0.00,VWS V14.01,2013-11-17 03:36:00,
2013-11-17 05:38:00,0.0,0.0,29.68,WNW,292,2.9,2.9,0,0.00,,---,0.00,VWS V14.01,2013-11-17 03:38:00,
2013-11-17 05:39:00,0.0,0.0,29.68,WNW,292,3.1,3.1,0,0.00,,---,0.00,VWS V14.01,2013-11-17 03:39:00,
2013-11-17 05:40:00,0.0,0.0,29.68,WNW,292,3.8,3.8,0,0.00,,---,0.00,VWS V14.01,2013-11-17 03:40:00,
2013-11-17 05:42:00,0.0,0.0,29.68,WNW,292,3.6,3.6,0,0.00,,---,0.00,VWS V14.01,2013-11-17 03:42:00,
2013-11-17 05:46:00,0.0,0.0,29.68,West,270,2.9,2.9,0,0.00,,---,0.00,VWS V14.01,2013-11-17 03:46:00,
2013-11-17 05:48:00,0.0,0.0,29.71,WNW,292,0.0,2.5,0,0.00,,---,0.00,VWS V14.01,2013-11-17 03:48:00,
2013-11-17 05:49:00,0.0,0.0,29.71,WNW,292,0.0,0.0,0,0.00,,---,0.00,VWS V14.01,2013-11-17 03:49:00,
2013-11-17 05:50:00,0.0,0.0,29.71,WNW,292,3.8,3.8,0,0.00,,---,0.00,VWS V14.01,2013-11-17 03:50:00,
2013-11-17 05:51:00,0.0,0.0,29.71,NW,315,3.1,3.8,0,0.00,,---,0.00,VWS V14.01,2013-11-17 03:51:00,
2013-11-17 05:52:00,0.0,0.0,29.71,WNW,292,3.6,3.6,0,0.00,,---,0.00,VWS V14.01,2013-11-17 03:52:00,
2013-11-17 05:53:00,0.0,0.0,29.71,WNW,292,3.8,3.8,0,0.00,,---,0.00,VWS V14.01,2013-11-17 03:53:00,
2013-11-17 05:54:00,0.0,0.0,29.71,WNW,292,2.0,3.8,0,0.00,,---,0.00,VWS V14.01,2013-11-17 03:54:00,
2013-11-17 05:59:00,0.0,0.0,29.71,WNW,292,3.1,4.7,0,0.00,,---,0.00,VWS V14.01,2013-11-17 03:59:00,
2013-11-17 06:00:00,0.0,0.0,29.71,West,270,1.3,3.1,0,0.00,,---,0.00,VWS V14.01,2013-11-17 04:00:00,
2013-11-17 06:02:00,0.0,0.0,29.71,NW,315,1.6,4.3,0,0.00,,---,0.00,VWS V14.01,2013-11-17 04:02:00,
2013-11-17 06:04:00,0.0,0.0,29.71,WNW,292,3.4,4.0,0,0.00,,---,0.00,VWS V14.01,2013-11-17 04:04:00,
2013-11-17 06:05:00,0.0,0.0,29.71,WNW,292,4.0,4.0,0,0.00,,---,0.00,VWS V14.01,2013-11-17 04:05:00,
2013-11-17 06:06:00,0.0,0.0,29.71,WNW,292,4.3,4.3,0,0.00,,---,0.00,VWS V14.01,2013-11-17 04:06:00,
2013-11-17 06:11:00,0.0,0.0,29.71,WNW,292,1.3,2.7,0,0.00,,---,0.00,VWS V14.01,2013-11-17 04:11:00,
2013-11-17 06:12:00,0.0,0.0,29.71,West,270,2.9,3.4,0,0.00,,---,0.00,VWS V14.01,2013-11-17 04:12:00,
2013-11-17 06:14:00,0.0,0.0,29.71,WNW,292,3.4,3.4,0,0.00,,---,0.00,VWS V14.01,2013-11-17 04:14:00,
2013-11-17 06:17:00,0.0,0.0,29.71,WSW,248,0.0,3.1,0,0.00,,---,0.00,VWS V14.01,2013-11-17 04:17:00,
2013-11-17 06:18:00,0.0,0.0,29.71,WNW,292,0.0,3.1,0,0.00,,---,0.00,VWS V14.01,2013-11-17 04:18:00,
2013-11-17 06:20:00,0.0,0.0,29.71,WSW,248,0.0,0.9,0,0.00,,---,0.00,VWS V14.01,2013-11-17 04:20:00,
2013-11-17 06:22:00,0.0,0.0,29.71,SW,225,0.0,1.6,0,0.00,,---,0.00,VWS V14.01,2013-11-17 04:22:00,
2013-11-17 06:27:00,0.0,0.0,29.71,WSW,248,0.0,1.1,0,0.00,,---,0.00,VWS V14.01,2013-11-17 04:27:00,
2013-11-17 06:30:00,0.0,0.0,29.71,WSW,248,0.0,0.9,0,0.00,,---,0.00,VWS V14.01,2013-11-17 04:30:00,
2013-11-17 06:31:00,0.0,0.0,29.71,WSW,248,1.3,2.5,0,0.00,,---,0.00,VWS V14.01,2013-11-17 04:31:00,
2013-11-17 06:33:00,0.0,0.0,29.71,West,270,0.0,0.9,0,0.00,,---,0.00,VWS V14.01,2013-11-17 04:33:00,
2013-11-17 06:35:00,0.0,0.0,29.71,West,270,0.0,0.9,0,0.00,,---,0.00,VWS V14.01,2013-11-17 04:35:00,
2013-11-17 06:36:00,0.0,0.0,29.71,WSW,248,0.0,0.0,0,0.00,,---,0.00,VWS V14.01,2013-11-17 04:36:00,
2013-11-17 06:39:00,0.0,0.0,29.71,WNW,292,1.3,1.3,0,0.00,,---,0.00,VWS V14.01,2013-11-17 04:39:00,
2013-11-17 06:41:00,0.0,0.0,29.71,West,270,0.0,0.0,0,0.00,,---,0.00,VWS V14.01,2013-11-17 04:41:00,
2013-11-17 06:43:00,0.0,0.0,29.71,WNW,292,0.0,0.9,0,0.00,,---,0.00,VWS V14.01,2013-11-17 04:43:00,
2013-11-17 06:47:00,0.0,0.0,29.71,West,270,0.0,0.0,0,0.00,,---,0.00,VWS V14.01,2013-11-17 04:47:00,
2013-11-17 06:49:00,0.0,0.0,29.74,WNW,292,0.0,0.0,0,0.00,,---,0.00,VWS V14.01,2013-11-17 04:49:00,
2013-11-17 06:51:00,0.0,0.0,29.74,WNW,292,0.9,2.2,0,0.00,,---,0.00,VWS V14.01,2013-11-17 04:51:00,
2013-11-17 06:52:00,0.0,0.0,29.74,WNW,292,0.0,0.9,0,0.00,,---,0.00,VWS V14.01,2013-11-17 04:52:00,
2013-11-17 06:53:00,0.0,0.0,29.74,WNW,292,0.0,1.6,0,0.00,,---,0.00,VWS V14.01,2013-11-17 04:53:00,
2013-11-17 06:54:00,0.0,0.0,29.74,WNW,292,2.5,2.5,0,0.00,,---,0.00,VWS V14.01,2013-11-17 04:54:00,
2013-11-17 06:55:00,0.0,0.0,29.74,WNW,292,2.5,2.5,0,0.00,,---,0.00,VWS V14.01,2013-11-17 04:55:00,
2013-11-17 06:57:00,0.0,0.0,29.74,WSW,248,0.0,2.5,0,0.00,,---,0.00,VWS V14.01,2013-11-17 04:57:00,
2013-11-17 06:58:00,0.0,0.0,29.74,WSW,248,0.0,0.0,0,0.00,,---,0.00,VWS V14.01,2013-11-17 04:58:00,
2013-11-17 07:01:00,0.0,0.0,29.74,WSW,248,0.0,0.0,0,0.00,,---,0.00,VWS V14.01,2013-11-17 05:01:00,
2013-11-17 07:02:00,0.0,0.0,29.74,WSW,248,0.0,0.9,0,0.00,,---,0.00,VWS V14.01,2013-11-17 05:02:00,
2013-11-17 07:05:00,0.0,0.0,29.74,SW,225,0.0,0.9,0,0.00,,---,0.00,VWS V14.01,2013-11-17 05:05:00,
2013-11-17 07:06:00,0.0,0.0,29.74,WSW,248,0.0,0.9,0,0.00,,---,0.00,VWS V14.01,2013-11-17 05:06:00,
2013-11-17 07:08:00,0.0,0.0,29.74,SSW,202,0.0,1.1,0,0.00,,---,0.00,VWS V14.01,2013-11-17 05:08:00,
2013-11-17 07:09:00,0.0,0.0,29.74,SSW,202,0.0,0.0,0,0.00,,---,0.00,VWS V14.01,2013-11-17 05:09:00,
2013-11-17 07:10:00,0.0,0.0,29.74,SSW,202,0.0,1.1,0,0.00,,---,0.00,VWS V14.01,2013-11-17 05:10:00,
2013-11-17 07:11:00,0.0,0.0,29.74,SSW,202,0.0,4.3,0,0.00,,---,0.00,VWS V14.01,2013-11-17 05:11:00,
2013-11-17 07:14:00,0.0,0.0,29.74,SSW,202,0.9,4.9,0,0.00,,---,0.00,VWS V14.01,2013-11-17 05:14:00,
2013-11-17 07:17:00,0.0,0.0,29.74,SSW,202,5.8,5.8,0,0.00,,---,0.00,VWS V14.01,2013-11-17 05:17:00,
2013-11-17 07:18:00,0.0,0.0,29.74,SW,225,5.6,5.8,0,0.00,,---,0.00,VWS V14.01,2013-11-17 05:18:00,
2013-11-17 07:19:00,0.0,0.0,29.74,SSW,202,2.9,5.6,0,0.00,,---,0.00,VWS V14.01,2013-11-17 05:19:00,
2013-11-17 07:20:00,0.0,0.0,29.74,SSW,202,6.3,6.3,0,0.00,,---,0.00,VWS V14.01,2013-11-17 05:20:00,
2013-11-17 07:21:00,0.0,0.0,29.74,SSW,202,2.9,6.3,0,0.00,,---,0.00,VWS V14.01,2013-11-17 05:21:00,
2013-11-17 07:24:00,0.0,0.0,29.74,SSW,202,2.7,5.8,0,0.00,,---,0.00,VWS V14.01,2013-11-17 05:24:00,
2013-11-17 07:25:00,0.0,0.0,29.74,SSW,202,4.9,7.2,0,0.00,,---,0.00,VWS V14.01,2013-11-17 05:25:00,
2013-11-17 07:27:00,0.0,0.0,29.74,SW,225,3.6,3.6,0,0.00,,---,0.00,VWS V14.01,2013-11-17 05:27:00,
2013-11-17 07:29:00,0.0,0.0,29.74,SSW,202,7.4,7.4,0,0.00,,---,0.00,VWS V14.01,2013-11-17 05:29:00,
2013-11-17 07:30:00,0.0,0.0,29.74,SW,225,5.4,7.4,0,0.00,,---,0.00,VWS V14.01,2013-11-17 05:30:00,
2013-11-17 07:33:00,0.0,0.0,29.74,SSW,202,3.6,6.5,0,0.00,,---,0.00,VWS V14.01,2013-11-17 05:33:00,
2013-11-17 07:35:00,0.0,0.0,29.74,SSW,202,7.4,7.4,0,0.00,,---,0.00,VWS V14.01,2013-11-17 05:35:00,
2013-11-17 07:36:00,0.0,0.0,29.74,SSW,202,5.6,7.4,0,0.00,,---,0.00,VWS V14.01,2013-11-17 05:36:00,
2013-11-17 07:38:00,0.0,0.0,29.74,SW,225,7.4,7.4,0,0.00,,---,0.00,VWS V14.01,2013-11-17 05:38:00,
2013-11-17 07:39:00,0.0,0.0,29.74,SSW,202,5.8,7.4,0,0.00,,---,0.00,VWS V14.01,2013-11-17 05:39:00,
2013-11-17 07:41:00,0.0,0.0,29.74,SSW,202,8.7,9.0,0,0.00,,---,0.00,VWS V14.01,2013-11-17 05:41:00,
2013-11-17 07:42:00,0.0,0.0,29.74,SSW,202,4.0,8.7,0,0.00,,---,0.00,VWS V14.01,2013-11-17 05:42:00,
2013-11-17 07:44:00,0.0,0.0,29.74,SSW,202,0.0,10.7,0,0.00,,---,0.00,VWS V14.01,2013-11-17 05:44:00,
2013-11-17 07:47:00,0.0,0.0,29.74,SSW,202,5.8,6.3,0,0.00,,---,0.00,VWS V14.01,2013-11-17 05:47:00,
2013-11-17 07:48:00,0.0,0.0,29.74,South,180,7.4,7.8,0,0.00,,---,0.00,VWS V14.01,2013-11-17 05:48:00,
2013-11-17 07:50:00,0.0,0.0,29.74,SSW,202,4.0,7.4,0,0.00,,---,0.00,VWS V14.01,2013-11-17 05:50:00,
2013-11-17 07:51:00,0.0,0.0,29.74,SW,225,3.1,6.0,0,0.00,,---,0.00,VWS V14.01,2013-11-17 05:51:00,
2013-11-17 07:52:00,0.0,0.0,29.74,SSW,202,6.3,7.6,0,0.00,,---,0.00,VWS V14.01,2013-11-17 05:52:00,
2013-11-17 07:53:00,0.0,0.0,29.74,SW,225,5.8,6.3,0,0.00,,---,0.00,VWS V14.01,2013-11-17 05:53:00,
2013-11-17 07:54:00,0.0,0.0,29.74,SSW,202,3.1,5.8,0,0.00,,---,0.00,VWS V14.01,2013-11-17 05:54:00,
2013-11-17 07:56:00,0.0,0.0,29.74,SSW,202,4.7,6.0,0,0.00,,---,0.00,VWS V14.01,2013-11-17 05:56:00,
2013-11-17 07:57:00,0.0,0.0,29.74,SSW,202,3.8,6.7,0,0.00,,---,0.00,VWS V14.01,2013-11-17 05:57:00,
2013-11-17 07:59:00,0.0,0.0,29.74,SSW,202,5.8,5.8,0,0.00,,---,0.00,VWS V14.01,2013-11-17 05:59:00,
2013-11-17 08:03:00,0.0,0.0,29.74,SSW,202,4.3,7.2,0,0.00,,---,0.00,VWS V14.01,2013-11-17 06:03:00,
2013-11-17 08:04:00,0.0,0.0,29.74,SSW,202,6.3,7.6,0,0.00,,---,0.00,VWS V14.01,2013-11-17 06:04:00,
2013-11-17 08:05:00,0.0,0.0,29.74,SSW,202,6.5,7.6,0,0.00,,---,0.00,VWS V14.01,2013-11-17 06:05:00,
2013-11-17 08:06:00,0.0,0.0,29.74,SSW,202,0.9,6.5,0,0.00,,---,0.00,VWS V14.01,2013-11-17 06:06:00,
2013-11-17 08:08:00,0.0,0.0,29.74,SSW,202,5.4,7.2,0,0.00,,---,0.00,VWS V14.01,2013-11-17 06:08:00,
2013-11-17 08:10:00,0.0,0.0,29.74,SSW,202,3.4,6.0,0,0.00,,---,0.00,VWS V14.01,2013-11-17 06:10:00,
2013-11-17 08:11:00,0.0,0.0,29.74,SSW,202,4.0,6.5,0,0.00,,---,0.00,VWS V14.01,2013-11-17 06:11:00,
2013-11-17 08:14:00,0.0,0.0,29.74,SW,225,2.7,6.0,0,0.00,,---,0.00,VWS V14.01,2013-11-17 06:14:00,
2013-11-17 08:16:00,0.0,0.0,29.74,SW,225,3.4,3.4,0,0.00,,---,0.00,VWS V14.01,2013-11-17 06:16:00,
2013-11-17 08:17:00,0.0,0.0,29.74,SSW,202,5.8,5.8,0,0.00,,---,0.00,VWS V14.01,2013-11-17 06:17:00,
2013-11-17 08:20:00,0.0,0.0,29.76,SSW,202,5.4,5.4,0,0.00,,---,0.00,VWS V14.01,2013-11-17 06:20:00,
2013-11-17 08:21:00,0.0,0.0,29.76,SSW,202,2.9,5.4,0,0.00,,---,0.00,VWS V14.01,2013-11-17 06:21:00,
2013-11-17 08:22:00,0.0,0.0,29.76,SSW,202,4.7,5.4,0,0.00,,---,0.00,VWS V14.01,2013-11-17 06:22:00,
2013-11-17 08:25:00,0.0,0.0,29.76,SW,225,2.5,4.9,0,0.00,,---,0.00,VWS V14.01,2013-11-17 06:25:00,
2013-11-17 08:27:00,0.0,0.0,29.76,SSW,202,0.9,4.3,0,0.00,,---,0.00,VWS V14.01,2013-11-17 06:27:00,
2013-11-17 08:30:00,0.0,0.0,29.76,WSW,248,1.6,4.0,0,0.00,,---,0.00,VWS V14.01,2013-11-17 06:30:00,
2013-11-17 08:31:00,0.0,0.0,29.76,WSW,248,5.8,6.5,0,0.00,,---,0.00,VWS V14.01,2013-11-17 06:31:00,
2013-11-17 08:34:00,0.0,0.0,29.76,SSW,202,3.4,4.9,0,0.00,,---,0.00,VWS V14.01,2013-11-17 06:34:00,
2013-11-17 08:35:00,0.0,0.0,29.76,SSW,202,0.9,5.6,0,0.00,,---,0.00,VWS V14.01,2013-11-17 06:35:00,
2013-11-17 08:36:00,0.0,0.0,29.76,SSW,202,2.5,6.3,0,0.00,,---,0.00,VWS V14.01,2013-11-17 06:36:00,
2013-11-17 08:37:00,0.0,0.0,29.76,SSW,202,0.0,7.4,0,0.00,,---,0.00,VWS V14.01,2013-11-17 06:37:00,
2013-11-17 08:38:00,0.0,0.0,29.76,WSW,248,3.1,4.9,0,0.00,,---,0.00,VWS V14.01,2013-11-17 06:38:00,
2013-11-17 08:41:00,0.0,0.0,29.76,WSW,248,4.9,4.9,0,0.00,,---,0.00,VWS V14.01,2013-11-17 06:41:00,
2013-11-17 08:42:00,0.0,0.0,29.76,SSW,202,3.4,4.9,0,0.00,,---,0.00,VWS V14.01,2013-11-17 06:42:00,
2013-11-17 08:43:00,0.0,0.0,29.76,SSW,202,3.8,4.7,0,0.00,,---,0.00,VWS V14.01,2013-11-17 06:43:00,
2013-11-17 08:47:00,0.0,0.0,29.76,SW,225,4.5,4.5,0,0.00,,---,0.00,VWS V14.01,2013-11-17 06:47:00,
2013-11-17 08:48:00,0.0,0.0,29.76,SW,225,5.6,5.6,0,0.00,,---,0.00,VWS V14.01,2013-11-17 06:48:00,
2013-11-17 08:49:00,0.0,0.0,29.76,SSW,202,2.7,5.8,0,0.00,,---,0.00,VWS V14.01,2013-11-17 06:49:00,
2013-11-17 08:53:00,0.0,0.0,29.76,SW,225,3.6,6.3,0,0.00,,---,0.00,VWS V14.01,2013-11-17 06:53:00,
2013-11-17 08:54:00,0.0,0.0,29.76,SSW,202,2.5,5.6,0,0.00,,---,0.00,VWS V14.01,2013-11-17 06:54:00,
2013-11-17 08:55:00,0.0,0.0,29.76,SW,225,0.9,5.8,0,0.00,,---,0.00,VWS V14.01,2013-11-17 06:55:00,
2013-11-17 08:56:00,0.0,0.0,29.76,SW,225,2.7,5.6,0,0.00,,---,0.00,VWS V14.01,2013-11-17 06:56:00,
2013-11-17 08:58:00,0.0,0.0,29.76,SW,225,2.5,4.9,0,0.00,,---,0.00,VWS V14.01,2013-11-17 06:58:00,
2013-11-17 09:03:00,0.0,0.0,29.79,SSW,202,2.9,5.6,0,0.00,,---,0.00,VWS V14.01,2013-11-17 07:03:00,
2013-11-17 09:04:00,0.0,0.0,29.79,SW,225,7.4,7.4,0,0.00,,---,0.00,VWS V14.01,2013-11-17 07:04:00,
2013-11-17 09:06:00,0.0,0.0,29.79,SSW,202,2.0,3.8,0,0.00,,---,0.00,VWS V14.01,2013-11-17 07:06:00,
2013-11-17 09:09:00,0.0,0.0,29.79,SW,225,0.0,4.0,0,0.00,,---,0.00,VWS V14.01,2013-11-17 07:09:00,
2013-11-17 09:10:00,0.0,0.0,29.79,SSW,202,0.9,0.9,0,0.00,,---,0.00,VWS V14.01,2013-11-17 07:10:00,
2013-11-17 09:11:00,0.0,0.0,29.79,WSW,248,2.0,3.6,0,0.00,,---,0.00,VWS V14.01,2013-11-17 07:11:00,
2013-11-17 09:12:00,0.0,0.0,29.79,SSW,202,2.0,3.1,0,0.00,,---,0.00,VWS V14.01,2013-11-17 07:12:00,
2013-11-17 09:13:00,0.0,0.0,29.79,SSW,202,2.5,4.7,0,0.00,,---,0.00,VWS V14.01,2013-11-17 07:13:00,
2013-11-17 09:15:00,0.0,0.0,29.79,SSW,202,3.1,6.0,0,0.00,,---,0.00,VWS V14.01,2013-11-17 07:15:00,
2013-11-17 09:16:00,0.0,0.0,29.79,SSW,202,4.7,4.7,0,0.00,,---,0.00,VWS V14.01,2013-11-17 07:16:00,
2013-11-17 09:17:00,0.0,0.0,29.79,SSW,202,4.3,4.7,0,0.00,,---,0.00,VWS V14.01,2013-11-17 07:17:00,
2013-11-17 09:19:00,0.0,0.0,29.79,SW,225,1.3,4.3,0,0.00,,---,0.00,VWS V14.01,2013-11-17 07:19:00,
2013-11-17 09:20:00,0.0,0.0,29.79,SSW,202,2.0,2.2,0,0.00,,---,0.00,VWS V14.01,2013-11-17 07:20:00,
2013-11-17 09:21:00,0.0,0.0,29.79,SW,225,0.9,5.6,0,0.00,,---,0.00,VWS V14.01,2013-11-17 07:21:00,
2013-11-17 09:22:00,0.0,0.0,29.79,SSW,202,2.5,3.8,0,0.00,,---,0.00,VWS V14.01,2013-11-17 07:22:00,
2013-11-17 09:24:00,0.0,0.0,29.79,WSW,248,0.0,2.5,0,0.00,,---,0.00,VWS V14.01,2013-11-17 07:24:00,
2013-11-17 09:25:00,0.0,0.0,29.79,SW,225,4.0,5.6,0,0.00,,---,0.00,VWS V14.01,2013-11-17 07:25:00,
2013-11-17 09:27:00,0.0,0.0,29.79,SW,225,2.7,3.6,0,0.00,,---,0.00,VWS V14.01,2013-11-17 07:27:00,
2013-11-17 09:30:00,0.0,0.0,29.79,SSW,202,2.7,2.7,0,0.00,,---,0.00,VWS V14.01,2013-11-17 07:30:00,
2013-11-17 09:31:00,0.0,0.0,29.79,SW,225,2.7,2.7,0,0.00,,---,0.00,VWS V14.01,2013-11-17 07:31:00,
2013-11-17 09:33:00,0.0,0.0,29.79,SW,225,0.0,4.0,0,0.00,,---,0.00,VWS V14.01,2013-11-17 07:33:00,
2013-11-17 09:34:00,0.0,0.0,29.79,SSW,202,3.8,3.8,0,0.00,,---,0.00,VWS V14.01,2013-11-17 07:34:00,
2013-11-17 09:35:00,0.0,0.0,29.79,WSW,248,0.0,3.8,0,0.00,,---,0.00,VWS V14.01,2013-11-17 07:35:00,
2013-11-17 09:38:00,0.0,0.0,29.79,SSW,202,3.6,3.6,0,0.00,,---,0.00,VWS V14.01,2013-11-17 07:38:00,
2013-11-17 09:40:00,0.0,0.0,29.79,SSW,202,1.3,4.3,0,0.00,,---,0.00,VWS V14.01,2013-11-17 07:40:00,
2013-11-17 09:41:00,0.0,0.0,29.79,SSW,202,4.7,4.7,0,0.00,,---,0.00,VWS V14.01,2013-11-17 07:41:00,
2013-11-17 09:44:00,0.0,0.0,29.79,SW,225,2.5,5.4,0,0.00,,---,0.00,VWS V14.01,2013-11-17 07:44:00,
2013-11-17 09:45:00,0.0,0.0,29.79,SW,225,1.1,2.9,0,0.00,,---,0.00,VWS V14.01,2013-11-17 07:45:00,
2013-11-17 09:46:00,0.0,0.0,29.79,West,270,0.0,2.9,0,0.00,,---,0.00,VWS V14.01,2013-11-17 07:46:00,
2013-11-17 09:47:00,0.0,0.0,29.79,SSW,202,0.0,1.6,0,0.00,,---,0.00,VWS V14.01,2013-11-17 07:47:00,
2013-11-17 09:49:00,0.0,0.0,29.79,SSW,202,0.0,4.0,0,0.00,,---,0.00,VWS V14.01,2013-11-17 07:49:00,